Temperature
17 17 17 17 17 17 16 16 16 16 16 16 16 16 17 17 17 17 17 17 17 17 17 17 17 17 17 17 17 17 17 18 17 17 17 17 17 17 17 17 17 17 17
16 16 16 16 16 16 16 16 16 16 16 16 16 16 16 16 16 16 16 17 17 17 17 17 17 17 17 17 17 17 17 17 17 17 17 17 17 17 17 17 17 17 17
16 16 16 16 16 16 16 16 16 16 16 16 16 16 16 16 16 16 16 16 16 17 17 17 17 17 17 17 17 17 17 17 17 17 17 17 17 17 17 17 17 17 17
16 16 15 15 15 15 15 16 16 16 16 16 15 15 15 15 15 15 15 16 16 16 16 17 17 17 17 17 17 17 17 17 17 17 17 17 17 17 17 17 17 17 17
15 15 15 15 15 15 15 15 15 15 15 15 15 15 15 15 15 15 15 16 16 16 16 17 17 17 17 17 17 17 16 16 16 16 16 16 17 17 17 17 17 17 17
14 14 15 15 14 15 15 15 15 15 15 15 15 15 15 15 15 15 15 15 16 16 16 16 17 17 17 17 17 17 16 16 16 16 16 16 16 16 17 17 17 17 17
14 14 14 14 14 14 14 14 14 14 14 14 14 15 15 15 16 16 16 16 16 16 16 16 16 16 17 17 17 16 16 16 16 16 16 16 16 16 16 16 16 17 17
13 13 13 13 13 14 14 14 14 14 14 14 14 14 14 15 16 16 16 16 16 16 16 16 16 16 16 17 17 17 16 16 16 16 16 16 16 16 16 16 16 16 16
12 12 12 12 13 13 13 13 13 13 13 14 13 13 14 14 15 16 16 16 16 16 16 16 16 16 16 17 17 17 16 16 16 16 16 16 16 16 16 16 16 16 16
11 11 11 12 12 12 13 13 13 13 13 13 13 13 13 13 13 14 15 15 15 16 16 16 16 16 16 16 17 17 16 16 16 16 16 16 16 16 16 16 16 16 16
11 11 11 11 11 11 12 12 12 12 12 13 13 13 13 13 13 13 14 15 15 15 16 16 16 16 16 16 16 16 16 16 16 16 16 16 16 16 16 16 16 16 16
11 10 10 10 10 11 11 11 12 12 12 12 12 12 12 13 12 12 13 13 14 15 16 16 16 16 16 16 16 16 16 16 16 16 16 16 16 16 16 16 16 16 16
10 10 10 10 10 10 10 11 11 11 11 12 12 12 12 12 12 12 12 13 13 15 15 16 16 16 16 16 16 16 16 16 16 16 16 16 16 16 16 16 16 16 16
10 10 10 9 9 9 9 10 10 10 11 11 11 11 12 12 12 12 12 12 12 13 14 15 16 16 16 16 16 16 16 16 16 16 16 16 16 16 16 16 16 16 16
10 9 9 9 9 9 9 9 9 9 10 10 10 11 11 11 11 12 12 12 11 12 13 14 15 16 16 16 16 16 16 16 16 16 16 16 16 16 16 16 16 16 16
10 9 9 9 9 9 9 8 8 8 9 9 9 10 10 10 11 11 11 11 11 11 12 13 14 15 15 16 16 16 16 16 16 16 16 16 16 16 16 16 16 16 16
9 9 9 9 9 9 9 8 8 8 8 8 8 9 9 9 10 10 11 11 11 11 11 12 13 14 15 15 16 16 16 16 16 16 16 16 16 16 16 16 16 16 16
9 9 9 9 9 9 8 8 8 8 8 8 8 8 8 9 9 10 10 10 11 11 11 12 12 13 14 15 15 15 15 15 15 16 16 16 16 16 16 16 15 16 16
9 9 9 8 8 8 8 8 8 8 8 8 8 8 8 8 8 9 9 10 10 10 11 11 12 12 13 14 14 15 15 15 15 15 15 15 15 15 15 15 15 15 16
9 9 8 8 8 8 8 8 8 8 8 8 8 8 8 7 8 8 8 9 9 10 10 10 11 12 12 12 13 13 14 14 15 15 15 15 15 15 15 15 15 15 16
8 8 8 8 8 8 8 8 8 8 8 8 8 8 8 7 7 7 8 8 9 9 10 10 10 11 11 12 12 13 13 13 13 14 14 15 15 15 15 15 15 15 15
8 8 8 7 7 7 8 7 7 7 7 7 8 8 8 7 7 7 7 7 8 8 9 9 10 10 11 11 12 12 12 12 12 12 13 13 13 14 14 14 15 15 15
8 8 7 7 7 8 8 7 7 7 7 7 7 8 8 8 7 7 7 7 7 8 8 9 9 10 11 11 11 12 12 12 12 12 12 12 12 12 12 13 14 14 15
7 7 7 7 7 8 8 7 7 7 7 7 7 7 7 7 7 7 7 6 7 7 8 8 9 10 10 11 11 11 12 12 12 12 11 11 11 11 11 11 12 12 13
7 7 7 7 7 8 8 7 7 7 7 7 7 7 7 7 7 7 6 6 6 7 7 8 8 9 10 10 11 11 11 11 11 11 11 11 11 11 11 11 11 12 12
7 7 7 7 7 8 8 7 7 7 7 7 6 6 6 6 6 6 6 6 6 6 7 7 8 9 9 10 10 11 11 11 11 11 11 11 11 10 10 11 11 11 11
Wind_Speed
4 3 3 4 4 5 5 5 5 6 7 8 10 10 10 11 12 12 11 14 14 15 15 16 20 25 27 27 26 25 24 23 22 22 22 21 21 21 20 20 19 19 18
3 2 2 2 3 4 5 5 5 5 5 5 7 9 10 11 12 13 13 14 16 16 16 16 18 23 26 27 27 27 26 26 25 24 23 23 23 22 22 21 20 20 19
4 2 2 2 3 4 4 4 4 4 5 6 8 8 8 10 11 13 14 13 14 16 18 18 17 19 23 26 27 27 27 27 27 27 26 25 24 24 23 22 22 21 21
6 3 2 3 3 3 2 2 3 4 5 6 6 7 7 8 10 12 13 14 13 14 17 20 18 19 21 24 27 27 28 28 29 29 29 28 26 26 25 24 23 22 22
8 4 2 3 3 2 2 3 2 3 5 6 7 7 7 8 9 10 11 13 15 15 15 17 20 20 21 23 26 26 27 29 30 30 31 30 29 28 27 26 24 24 23
8 5 3 3 3 2 2 2 3 3 5 6 7 7 7 8 8 9 11 10 13 16 17 16 16 18 22 23 24 25 27 28 30 31 32 31 31 30 29 28 27 25 24
8 5 3 4 3 2 3 3 3 4 4 3 3 5 5 8 10 9 9 9 11 13 15 15 15 16 16 22 26 26 28 28 29 32 33 33 32 31 31 30 28 27 26
8 6 4 4 3 3 3 2 2 2 2 2 2 2 4 4 3 7 7 8 9 8 10 13 15 16 16 16 19 26 28 29 30 32 33 33 33 32 32 31 31 29 29
8 6 5 4 4 2 3 3 2 2 3 2 3 3 2 3 4 2 3 5 6 7 8 8 12 16 17 16 17 21 27 29 32 32 32 32 32 32 32 32 32 31 30
7 6 5 4 4 3 3 3 1 1 2 2 2 3 4 3 3 4 3 2 4 6 7 8 10 12 15 15 16 19 24 28 30 31 31 30 31 31 31 31 31 31 31
6 6 5 4 4 3 3 3 2 1 1 2 2 1 2 2 3 4 5 4 3 4 5 7 8 8 13 15 15 18 23 24 26 29 30 30 30 30 31 31 31 31 30
4 5 4 3 3 3 3 3 2 2 2 2 2 2 1 1 1 2 4 4 5 4 4 5 6 7 9 13 16 19 21 22 23 25 27 28 29 29 29 30 30 30 30
4 5 4 3 3 3 4 3 2 2 2 2 3 2 2 3 2 2 3 4 4 3 3 3 4 5 6 10 12 18 19 21 21 22 24 26 27 28 29 29 29 29 28
5 6 5 5 5 4 4 3 2 3 2 3 3 3 3 3 3 3 2 2 4 3 2 4 2 2 3 6 10 14 14 18 19 20 21 22 25 26 27 27 27 27 27
5 6 6 6 5 5 5 4 3 4 3 3 4 4 3 3 3 4 4 3 3 3 3 3 3 3 3 4 6 8 9 13 17 18 19 20 22 24 25 25 25 26 25
6 7 7 7 6 6 5 4 4 4 4 4 4 4 4 3 3 4 4 4 5 4 4 2 2 4 5 3 2 5 7 11 15 17 18 19 20 21 22 23 23 23 23
7 7 8 8 8 8 6 5 6 6 6 6 5 5 6 5 4 4 4 4 5 5 6 4 3 3 4 3 1 1 2 4 7 13 16 17 17 19 19 20 20 21 21
8 8 8 8 9 9 7 7 8 7 7 8 8 7 8 6 6 5 4 5 5 6 6 6 3 2 2 1 1 2 2 3 4 8 11 12 14 15 16 16 17 18 18
9 9 9 9 10 10 9 9 9 9 9 9 9 9 9 8 8 6 6 6 6 6 6 6 5 2 2 1 2 3 3 3 4 7 8 9 10 11 12 13 14 15 16
9 9 9 10 10 10 11 11 10 10 10 10 9 9 10 10 10 9 8 8 7 6 6 6 6 4 3 3 4 4 4 3 3 4 6 7 9 9 9 11 13 14 15
9 9 10 10 10 10 10 11 10 11 11 11 10 10 10 12 13 11 8 8 7 7 6 6 6 4 4 4 5 5 5 5 3 3 5 4 5 5 5 7 10 13 14
9 9 10 11 11 10 12 15 14 11 11 12 12 11 11 13 15 16 17 15 12 10 9 8 7 7 7 6 6 6 6 6 4 4 4 3 3 4 3 3 7 11 14
9 10 10 11 12 13 16 17 18 13 12 12 13 12 12 12 13 11 14 17 16 17 15 11 10 9 8 7 8 9 9 7 5 7 5 3 3 3 3 5 7 10 13
9 10 11 11 12 13 15 16 17 13 12 13 14 14 14 14 12 12 12 12 13 12 13 13 11 11 10 8 9 9 9 7 5 6 5 4 3 2 2 5 7 10 13
10 10 10 11 12 14 15 15 14 9 10 13 13 13 14 15 15 15 14 14 13 12 13 14 14 14 13 12 9 8 10 10 7 5 3 4 4 3 2 3 7 11 14
10 11 11 11 12 13 15 15 13 7 9 10 10 12 15 16 16 16 15 14 15 13 12 11 12 13 13 12 13 12 11 11 7 5 5 5 5 4 3 2 3 6 10
Wind_Direction
248 242 249 252 254 257 255 251 247 243 238 233 229 228 230 230 230 230 231 234 238 239 242 243 234 227 220 214 208 205 204 204 203 201 198 196 194 192 191 189 188 186 185
270 256 247 249 256 254 253 252 252 249 246 243 241 236 235 234 233 231 232 236 240 241 241 244 237 229 224 220 215 210 208 207 204 203 202 200 197 196 195 194 193 191 191
312 285 268 265 265 264 260 260 262 258 258 251 249 246 243 242 238 235 235 233 234 239 240 239 236 229 225 223 221 217 213 210 207 205 204 203 201 199 199 197 197 196 195
356 336 307 295 297 288 272 266 263 263 260 255 254 253 248 245 243 240 236 233 229 234 238 237 235 230 227 226 225 223 220 215 211 207 206 205 204 202 201 200 200 199 198
10 1 331 318 322 308 286 278 267 253 265 263 260 256 248 245 245 244 239 234 231 230 233 236 234 230 227 228 228 227 226 222 217 211 209 206 205 205 203 202 202 201 201
10 11 355 342 342 324 310 298 280 263 259 265 271 269 255 249 243 240 240 236 233 232 230 229 230 232 228 227 229 229 230 229 224 218 213 210 208 206 205 204 203 203 203
7 14 6 353 345 309 291 295 284 282 273 255 265 281 272 252 244 241 237 235 236 234 230 226 224 225 226 226 226 227 229 230 230 224 218 213 211 208 206 206 205 204 204
2 11 7 351 337 305 296 295 274 285 283 244 232 272 306 312 273 244 236 234 237 234 231 226 222 220 222 223 225 225 226 227 230 227 221 216 213 209 208 207 207 206 207
349 356 357 353 346 325 291 284 262 247 277 283 232 229 251 275 312 302 249 242 242 236 234 227 225 223 220 220 224 226 225 225 227 227 223 218 214 210 208 208 208 208 208
335 342 350 358 358 352 321 300 277 246 257 286 289 246 244 251 274 308 310 274 260 250 243 235 230 225 221 219 221 222 225 224 223 224 223 218 214 210 209 209 209 209 209
322 330 337 350 353 349 337 324 314 273 228 253 275 286 281 263 243 258 289 309 310 274 254 239 232 225 220 219 221 222 222 221 219 220 219 217 213 210 208 209 211 211 210
311 319 326 334 330 328 329 327 312 288 254 247 255 253 245 264 276 260 276 299 302 293 277 250 233 225 218 215 218 218 218 219 217 215 215 214 212 211 209 209 211 212 211
296 301 311 307 304 304 307 316 320 303 273 258 254 249 243 240 240 244 266 287 293 294 294 278 246 235 224 214 217 218 219 217 216 213 211 211 209 208 207 208 210 211 211
273 281 288 288 286 292 301 307 299 295 281 271 268 258 253 253 240 232 239 275 301 299 292 293 298 262 248 226 223 216 221 216 213 210 208 207 207 206 206 206 207 209 209
271 275 282 286 285 283 282 284 277 284 289 278 274 269 259 257 248 242 238 233 249 290 297 300 316 349 332 277 240 221 216 213 208 205 204 203 204 204 203 203 204 206 207
270 279 282 283 283 278 269 257 259 265 269 272 268 271 267 264 259 248 240 237 229 238 266 290 305 319 322 307 266 222 218 209 205 201 199 198 198 198 199 200 202 204 206
276 276 277 280 282 281 271 253 250 250 250 258 264 263 267 268 265 256 243 237 235 230 252 273 274 296 307 296 360 88 138 158 181 186 186 186 188 188 191 194 198 200 202
276 276 278 278 278 278 271 265 266 261 246 248 253 253 260 265 261 258 246 238 236 232 239 265 277 288 293 259 140 108 90 101 117 146 160 166 172 177 182 187 192 195 198
276 279 277 277 278 277 274 270 267 267 258 249 244 243 249 251 256 254 248 244 240 239 233 246 261 257 259 198 146 123 110 104 100 115 124 138 152 164 173 181 186 190 194
274 276 275 274 274 275 275 273 270 269 268 261 249 240 240 240 244 248 248 243 239 239 235 237 247 246 235 200 171 162 153 139 126 113 109 113 126 139 160 174 183 188 192
275 273 276 277 274 274 271 267 264 266 265 267 262 250 242 239 238 238 240 238 233 232 231 230 234 234 225 200 190 171 165 147 128 137 126 111 114 117 133 161 177 182 184
279 278 277 277 276 275 271 269 269 267 265 265 266 262 252 251 248 244 242 239 231 229 228 226 227 227 227 217 193 175 161 163 169 159 139 116 105 105 86 115 160 171 172
281 281 279 277 276 273 269 271 272 270 264 262 261 261 262 255 241 235 238 243 244 238 227 224 228 225 223 217 201 187 180 170 159 157 141 120 102 97 59 78 137 155 158
280 282 282 279 278 277 272 269 272 272 264 261 257 255 255 257 248 233 233 237 240 243 237 233 232 230 227 221 208 201 179 150 124 147 140 126 117 99 65 59 94 134 142
283 284 284 282 280 281 278 274 272 272 265 263 260 255 251 252 247 232 233 237 239 243 243 236 229 230 225 218 201 186 174 167 163 158 139 127 130 110 79 52 57 96 123
282 286 285 282 278 279 278 276 275 268 267 268 265 259 251 247 244 234 234 234 236 236 237 236 230 230 227 220 204 197 187 180 166 157 162 136 140 141 122 75 51 71 93
Height
1536 1536 1536 1536 1536 1535 1536 1536 1536 1536 1537 1537 1538 1539 1540 1541 1542 1544 1545 1547 1549 1551 1553 1555 1557 1560 1563 1565 1568 1570 1573 1575 1578 1580 1583 1586 1588 1590 1593 1595 1597 1599 1601
1533 1533 1532 1532 1532 1532 1532 1532 1532 1532 1532 1532 1533 1534 1534 1535 1536 1538 1539 1541 1543 1545 1547 1550 1552 1555 1558 1561 1563 1566 1569 1572 1575 1577 1580 1583 1585 1588 1590 1593 1595 1597 1599
1531 1530 1529 1529 1529 1529 1528 1528 1528 1527 1527 1527 1527 1528 1529 1529 1530 1531 1533 1534 1536 1539 1541 1544 1546 1549 1552 1555 1558 1561 1564 1567 1570 1574 1577 1580 1582 1585 1588 1590 1593 1595 1597
1528 1527 1526 1526 1526 1525 1525 1524 1524 1523 1523 1522 1522 1523 1523 1523 1523 1524 1525 1527 1529 1531 1534 1537 1540 1543 1546 1549 1552 1555 1559 1562 1565 1569 1573 1576 1579 1582 1585 1587 1590 1593 1595
1525 1524 1523 1523 1523 1522 1522 1521 1520 1519 1519 1518 1518 1517 1517 1517 1517 1517 1518 1519 1521 1524 1527 1530 1533 1536 1539 1542 1545 1549 1552 1556 1560 1564 1567 1571 1574 1578 1581 1584 1587 1590 1592
1522 1521 1521 1520 1520 1519 1519 1518 1517 1516 1515 1514 1513 1512 1512 1512 1512 1511 1512 1513 1514 1517 1519 1523 1526 1529 1532 1536 1539 1542 1545 1549 1554 1558 1562 1565 1569 1573 1576 1580 1583 1586 1589
1519 1518 1517 1517 1517 1516 1516 1515 1514 1513 1512 1511 1509 1508 1508 1507 1507 1506 1506 1507 1508 1511 1513 1516 1519 1522 1525 1528 1532 1535 1538 1542 1546 1551 1555 1559 1563 1567 1571 1575 1578 1582 1585
1515 1514 1514 1513 1513 1513 1513 1513 1511 1510 1509 1508 1507 1505 1504 1504 1502 1502 1502 1502 1504 1506 1508 1510 1512 1515 1518 1521 1524 1528 1531 1534 1539 1543 1548 1552 1557 1561 1565 1569 1573 1577 1581
1513 1511 1510 1510 1509 1509 1509 1509 1508 1507 1506 1505 1504 1504 1503 1501 1500 1500 1499 1500 1500 1501 1503 1504 1506 1509 1511 1514 1517 1520 1523 1527 1531 1536 1540 1545 1550 1554 1559 1563 1567 1571 1575
1510 1509 1507 1506 1505 1505 1505 1505 1505 1504 1504 1503 1502 1502 1502 1501 1500 1498 1498 1498 1498 1498 1498 1499 1501 1503 1505 1508 1510 1513 1516 1520 1524 1528 1533 1537 1542 1547 1552 1557 1561 1566 1569
1508 1506 1504 1503 1502 1501 1501 1501 1501 1501 1501 1500 1500 1499 1498 1498 1497 1497 1494 1494 1495 1495 1495 1495 1496 1498 1500 1502 1504 1507 1510 1513 1517 1521 1526 1530 1535 1540 1545 1550 1555 1559 1563
1504 1502 1500 1499 1498 1497 1497 1497 1497 1497 1497 1497 1497 1496 1496 1495 1494 1494 1492 1491 1490 1491 1491 1492 1493 1494 1496 1497 1499 1501 1504 1507 1511 1515 1519 1524 1529 1534 1538 1543 1548 1553 1557
1500 1498 1497 1495 1494 1493 1492 1492 1492 1492 1492 1492 1493 1493 1493 1493 1492 1491 1490 1488 1487 1487 1487 1488 1489 1490 1492 1493 1495 1497 1499 1503 1506 1510 1514 1518 1523 1527 1532 1537 1542 1547 1551
1497 1495 1493 1491 1490 1489 1488 1487 1487 1487 1487 1487 1488 1488 1489 1489 1489 1488 1488 1487 1485 1484 1484 1485 1486 1487 1488 1489 1491 1493 1495 1499 1502 1505 1509 1514 1518 1522 1527 1532 1536 1541 1545
1494 1492 1490 1488 1486 1485 1484 1482 1482 1482 1482 1482 1482 1483 1483 1484 1484 1484 1484 1484 1484 1482 1481 1481 1483 1483 1484 1486 1488 1490 1492 1495 1498 1502 1506 1510 1514 1518 1522 1526 1531 1535 1539
1490 1488 1486 1485 1483 1481 1480 1478 1477 1477 1476 1476 1476 1476 1477 1478 1478 1479 1480 1480 1480 1480 1478 1478 1479 1480 1481 1482 1484 1486 1489 1491 1495 1498 1502 1506 1510 1514 1518 1522 1526 1530 1534
1487 1484 1482 1480 1479 1477 1476 1474 1473 1472 1471 1470 1470 1470 1470 1471 1472 1473 1474 1475 1476 1476 1475 1474 1475 1476 1477 1479 1480 1482 1485 1488 1491 1495 1498 1502 1506 1510 1513 1517 1521 1525 1529
1482 1480 1477 1475 1473 1472 1470 1469 1468 1467 1465 1465 1464 1464 1464 1464 1465 1466 1467 1468 1470 1471 1471 1470 1471 1472 1473 1475 1476 1479 1481 1484 1488 1491 1494 1498 1502 1506 1509 1513 1517 1520 1524
1476 1474 1471 1469 1467 1465 1464 1463 1462 1460 1459 1458 1458 1457 1457 1458 1458 1459 1460 1461 1463 1465 1466 1466 1467 1468 1469 1471 1473 1475 1477 1481 1484 1487 1490 1494 1498 1501 1505 1508 1512 1516 1519
1470 1467 1465 1462 1460 1458 1457 1456 1455 1454 1453 1452 1451 1451 1450 1450 1451 1452 1453 1454 1456 1458 1460 1461 1462 1464 1465 1467 1469 1471 1474 1476 1480 1483 1486 1489 1493 1496 1500 1504 1508 1511 1515
1464 1461 1458 1455 1453 1451 1449 1448 1447 1446 1445 1445 1444 1444 1444 1443 1444 1445 1446 1447 1449 1451 1453 1455 1457 1459 1461 1462 1464 1467 1470 1473 1476 1479 1482 1485 1488 1492 1495 1499 1503 1507 1510
1457 1454 1451 1448 1446 1444 1443 1441 1440 1439 1438 1437 1437 1436 1436 1436 1436 1437 1439 1440 1442 1444 1446 1448 1450 1453 1455 1458 1460 1462 1466 1469 1473 1475 1478 1481 1484 1487 1491 1494 1498 1502 1506
1450 1447 1444 1442 1439 1438 1436 1435 1434 1432 1431 1430 1429 1429 1428 1429 1429 1429 1430 1432 1434 1436 1439 1441 1443 1446 1450 1453 1455 1457 1460 1464 1468 1471 1476 1478 1481 1484 1487 1491 1494 1498 1502
1444 1441 1438 1436 1433 1431 1430 1428 1427 1425 1423 1422 1421 1421 1420 1420 1421 1421 1422 1423 1425 1428 1431 1433 1436 1440 1444 1447 1450 1452 1455 1459 1464 1468 1472 1475 1479 1482 1485 1489 1491 1494 1498
1438 1435 1433 1430 1427 1425 1424 1422 1420 1417 1415 1414 1413 1412 1411 1411 1412 1413 1413 1414 1415 1418 1423 1426 1429 1433 1437 1441 1444 1447 1450 1454 1458 1462 1467 1471 1476 1479 1483 1486 1489 1493 1496
1433 1430 1427 1425 1422 1419 1417 1415 1413 1410 1407 1406 1404 1403 1402 1402 1403 1404 1404 1404 1406 1409 1414 1418 1421 1425 1429 1434 1437 1440 1444 1447 1451 1456 1461 1467 1472 1476 1481 1484 1487 1490 1494